Gainesville, GA

11:51 AM EDT on October 01, 2016 (GMT -0400)
Gilmer Memorial

Weather History for KGVL - December, 2013

Change the Weather History Date:

Sunday, December 1, 2013

  Actual Average Record
Temperature  
Mean Temperature 47 °F 47 °F  
Max Temperature 55 °F 56 °F 73 °F (1941)
Min Temperature 39 °F 39 °F 16 °F (1964)
Degree Days  
Heating Degree Days 18 18  
Month to date heating degree days 18 18  
Since 1 July heating degree days 631 553  
Moisture  
Dew Point 29 °F    
Average Humidity 54    
Maximum Humidity 65    
Minimum Humidity 42    
Precipitation  
Precipitation 0.00 in 0.17 in 1.56 in (1974)
Month to date precipitation 0.00 0.17  
Year to date precipitation 49.65  
Snow  
Snow 0.00 in - - ()
Month to date snowfall 0.0  
Since 1 July snowfall 0.0  
Snow Depth 0.00 in    
Sea Level Pressure  
Sea Level Pressure 30.20 in    
Wind  
Wind Speed 3 mph (West)    
Max Wind Speed 10 mph    
Max Gust Speed 20 mph    
Visibility 10 miles    
Events      
T = Trace of Precipitation, MM = Missing Value Source: NWS Daily Summary

Daily Weather History Graph

Daily Weather History Graph

Search for Another Location

Airport or City:

Trip Planner

Search our weather history database for the weather conditions in past years. The results will help you decide how hot, cold, wet, or windy it might be!

Date:

Astronomy

Dec. 01, 2013 Rise Set
Actual Time 7:23 AM EST 5:25 PM EST
Civil Twilight 6:55 AM EST 5:52 PM EST
Nautical Twilight 6:24 AM EST 6:23 PM EST
Astronomical Twilight 5:54 AM EST 6:54 PM EST
Moon 5:43 AM EST 4:31 PM EST
Length of Visible Light 10h 56m
Length of Day
10h 01m
Waning Crescent, 2% of the Moon is Illuminated
Dec 1
Waning Crescent
Dec 2
New
Dec 9
First Quarter
Dec 17
Full
Dec 25
Last Quarter

Hourly Weather History & Observations

Time (EST) Temp. Windchill Dew Point Humidity Pressure Visibility Wind Dir Wind Speed Gust Speed Precip Events Conditions
12:53 AM 41.0 °F 37.1 °F 23.0 °F 49% 30.34 in 10.0 mi ENE 5.8 mph - N/A   Overcast
1:53 AM 41.0 °F - 23.0 °F 49% 30.33 in 10.0 mi Calm Calm - N/A   Overcast
2:39 AM 41.0 °F 39.0 °F 24.8 °F 53% 30.31 in 10.0 mi NNE 3.5 mph - N/A   Overcast
2:53 AM 41.0 °F 39.0 °F 24.1 °F 51% 30.32 in 10.0 mi NNE 3.5 mph - N/A   Overcast
3:53 AM 39.0 °F - 24.1 °F 55% 30.31 in 10.0 mi Calm Calm - N/A   Mostly Cloudy
4:53 AM 39.9 °F - 25.0 °F 55% 30.30 in 10.0 mi Calm Calm - N/A   Overcast
5:53 AM 41.0 °F - 23.0 °F 49% 30.29 in 10.0 mi Calm Calm - N/A   Overcast
6:53 AM 41.0 °F - 23.0 °F 49% 30.29 in 10.0 mi Calm Calm - N/A   Overcast
7:53 AM 41.0 °F - 23.0 °F 49% 30.29 in 10.0 mi Calm Calm - N/A   Overcast
8:20 AM 42.8 °F - 21.2 °F 42% 30.28 in 10.0 mi Calm Calm - N/A   Overcast
8:53 AM 43.0 °F - 23.0 °F 45% 30.29 in 10.0 mi Calm Calm - N/A   Overcast
9:21 AM 44.6 °F - 23.0 °F 43% 30.27 in 10.0 mi Calm Calm - N/A   Overcast
9:41 AM 46.4 °F - 23.0 °F 40% 30.28 in 10.0 mi Calm Calm - N/A   Mostly Cloudy
9:53 AM 46.0 °F - 24.1 °F 42% 30.28 in 10.0 mi Calm Calm - N/A   Scattered Clouds
10:53 AM 48.9 °F - 28.0 °F 44% 30.26 in 10.0 mi Calm Calm - N/A   Clear
11:53 AM 52.0 °F - 35.1 °F 53% 30.21 in 10.0 mi Variable 6.9 mph - N/A   Clear
12:53 PM 52.0 °F - 35.1 °F 53% 30.18 in 10.0 mi WSW 8.1 mph - N/A   Clear
1:53 PM 54.0 °F - 35.1 °F 49% 30.14 in 10.0 mi Variable 5.8 mph - N/A   Clear
2:53 PM 54.0 °F - 36.0 °F 51% 30.12 in 10.0 mi West 6.9 mph - N/A   Clear
3:53 PM 53.1 °F - 36.0 °F 52% 30.10 in 10.0 mi SW 4.6 mph - N/A   Clear
4:53 PM 50.0 °F - 37.0 °F 61% 30.09 in 10.0 mi SW 4.6 mph - N/A   Clear
5:53 PM 48.9 °F - 36.0 °F 61% 30.08 in 7.0 mi WSW 3.5 mph - N/A   Clear
6:53 PM 48.0 °F - 36.0 °F 63% 30.07 in 10.0 mi WSW 5.8 mph - N/A   Clear
7:53 PM 48.0 °F - 36.0 °F 63% 30.07 in 10.0 mi West 4.6 mph - N/A   Clear
8:53 PM 46.9 °F - 35.1 °F 63% 30.06 in 10.0 mi West 5.8 mph - N/A   Clear
9:53 PM 46.0 °F 44.8 °F 36.0 °F 68% 30.05 in 10.0 mi West 3.5 mph - N/A   Scattered Clouds
10:53 PM 46.0 °F 44.8 °F 35.1 °F 66% 30.03 in 10.0 mi West 3.5 mph - N/A   Overcast
11:53 PM 46.0 °F 43.9 °F 35.1 °F 66% 30.03 in 10.0 mi West 4.6 mph - N/A   Clear